| time (UTC) | temp F | wind direction | speed MPH | gust MPH | rain 1hr in | rain 24hr in | rain mn in | humidity % | barometer mb |
| 20260831023526 | 88 | 51 | 6.0 | 12.0 | 0.00 | 0.00 | 0.00 | 72 | 1009.2 |
| 20260831023033 | 88 | 76 | 5.0 | 11.0 | 0.00 | 0.00 | 0.00 | 73 | 1009.2 |
| 20260831022515 | 88 | 333 | 6.0 | 11.0 | 0.00 | 0.00 | 0.00 | 71 | 1009.2 |
| 20260831022023 | 88 | 344 | 5.0 | 11.0 | 0.00 | 0.00 | 0.00 | 71 | 1009.3 |
| 20260831021530 | 88 | 103 | 4.0 | 9.0 | 0.00 | 0.00 | 0.00 | 72 | 1009.4 |
| 20260831021039 | 87 | 49 | 4.0 | 9.0 | 0.00 | 0.00 | 0.00 | 73 | 1009.4 |
| 20260831020556 | 87 | 49 | 3.0 | 8.0 | 0.00 | 0.00 | 0.00 | 75 | 1009.4 |
| 20260831020015 | 87 | 77 | 3.0 | 8.0 | 0.00 | 0.00 | 0.00 | 75 | 1009.4 |
| 20260831015523 | 87 | 38 | 3.0 | 9.0 | 0.00 | 0.00 | 0.00 | 77 | 1009.3 |
| 20260831015032 | 87 | 38 | 5.0 | 9.0 | 0.00 | 0.00 | 0.00 | 75 | 1009.2 |
| 20260831014536 | 87 | 4 | 4.0 | 7.0 | 0.00 | 0.00 | 0.00 | 75 | 1009.2 |
| 20260831014018 | 87 | 26 | 5.0 | 11.0 | 0.00 | 0.00 | 0.00 | 76 | 1009.2 |
| 20260831013527 | 87 | 69 | 6.0 | 11.0 | 0.00 | 0.00 | 0.00 | 75 | 1009.3 |
| 20260831013029 | 87 | 86 | 5.0 | 11.0 | 0.00 | 0.00 | 0.00 | 75 | 1009.3 |
| 20260831012537 | 87 | 101 | 5.0 | 10.0 | 0.00 | 0.00 | 0.00 | 74 | 1009.2 |
| 20260831012040 | 87 | 136 | 3.0 | 12.0 | 0.00 | 0.00 | 0.00 | 75 | 1009.3 |
| 20260831011527 | 87 | 31 | 6.0 | 11.0 | 0.00 | 0.00 | 0.00 | 74 | 1009.1 |
| 20260831011055 | 87 | 177 | 2.0 | 6.0 | 0.00 | 0.00 | 0.00 | 75 | 1009.2 |
| 20260831010604 | 87 | 75 | 3.0 | 7.0 | 0.00 | 0.00 | 0.00 | 76 | 1009.2 |
| 20260831010019 | 87 | 72 | 4.0 | 8.0 | 0.00 | 0.00 | 0.00 | 76 | 1009.4 |
| 20260831005528 | 87 | 156 | 3.0 | 8.0 | 0.00 | 0.00 | 0.00 | 76 | 1009.4 |
| 20260831005034 | 86 | 30 | 2.0 | 8.0 | 0.00 | 0.00 | 0.00 | 76 | 1009.4 |
| 20260831004547 | 86 | 81 | 4.0 | 10.0 | 0.00 | 0.00 | 0.00 | 77 | 1009.2 |
| 20260831004019 | 86 | 95 | 4.0 | 10.0 | 0.00 | 0.00 | 0.00 | 77 | 1009.2 |
| 20260831003530 | 86 | 106 | 3.0 | 8.0 | 0.00 | 0.00 | 0.00 | 77 | 1009.4 |
| 20260831003036 | 86 | 123 | 2.0 | 10.0 | 0.00 | 0.00 | 0.00 | 78 | 1009.3 |
| 20260831002518 | 86 | 66 | 6.0 | 9.0 | 0.00 | 0.00 | 0.00 | 77 | 1009.4 |
| 20260831002025 | 86 | 178 | 3.0 | 8.0 | 0.00 | 0.00 | 0.00 | 77 | 1009.4 |
| 20260831001529 | 86 | 64 | 4.0 | 8.0 | 0.00 | 0.00 | 0.00 | 78 | 1009.2 |
| 20260831001037 | 86 | 61 | 5.0 | 8.0 | 0.00 | 0.00 | 0.00 | 78 | 1009.2 |
| 20260831000520 | 86 | 107 | 3.0 | 5.0 | 0.00 | 0.00 | 0.00 | 78 | 1009.2 |
| 20260831000024 | 85 | 188 | 2.0 | 6.0 | 0.00 | 0.00 | 0.00 | 79 | 1009.1 |
| 20260830235534 | 85 | 186 | 2.0 | 6.0 | 0.00 | 0.00 | 0.00 | 78 | 1009.2 |
| 20260830235016 | 85 | 68 | 3.0 | 6.0 | 0.00 | 0.00 | 0.00 | 79 | 1009.2 |
| 20260830234515 | 85 | 111 | 3.0 | 6.0 | 0.00 | 0.00 | 0.00 | 79 | 1009.1 |
| 20260830234023 | 85 | 17 | 3.0 | 6.0 | 0.00 | 0.00 | 0.00 | 79 | 1009.1 |
| 20260830233529 | 85 | 89 | 2.0 | 6.0 | 0.00 | 0.00 | 0.00 | 79 | 1009.0 |
| 20260830233033 | 85 | 113 | 3.0 | 8.0 | 0.00 | 0.00 | 0.00 | 79 | 1009.0 |
| 20260830232515 | 85 | 97 | 3.0 | 8.0 | 0.00 | 0.00 | 0.00 | 80 | 1009.0 |
| 20260830232024 | 84 | 112 | 3.0 | 5.0 | 0.00 | 0.00 | 0.00 | 80 | 1008.9 |
| 20260830231533 | 84 | 112 | 1.0 | 4.0 | 0.00 | 0.00 | 0.00 | 81 | 1008.9 |
| 20260830231102 | 84 | 163 | 1.0 | 6.0 | 0.00 | 0.00 | 0.00 | 80 | 1008.9 |
| 20260830230523 | 84 | 155 | 1.0 | 4.0 | 0.00 | 0.00 | 0.00 | 81 | 1008.9 |
| 20260830230046 | 84 | 150 | 1.0 | 5.0 | 0.00 | 0.00 | 0.00 | 80 | 1008.8 |
| 20260830225533 | 84 | 330 | 0.0 | 4.0 | 0.00 | 0.00 | 0.00 | 80 | 1008.9 |
| 20260830225015 | 84 | 133 | 0.0 | 3.0 | 0.00 | 0.00 | 0.00 | 80 | 1008.9 |
| 20260830224523 | 83 | 179 | 1.0 | 3.0 | 0.00 | 0.00 | 0.00 | 80 | 1008.9 |
| 20260830224032 | 83 | 151 | 1.0 | 1.0 | 0.00 | 0.00 | 0.00 | 80 | 1008.8 |
| 20260830223604 | 82 | 151 | 0.0 | 2.0 | 0.00 | 0.00 | 0.00 | 81 | 1008.7 |
| 20260830223021 | 82 | 186 | 0.0 | 3.0 | 0.00 | 0.00 | 0.00 | 81 | 1008.8 |
| 20260830222529 | 82 | 183 | 1.0 | 3.0 | 0.00 | 0.00 | 0.00 | 82 | 1008.8 |
| 20260830222031 | 81 | 182 | 1.0 | 4.0 | 0.00 | 0.00 | 0.00 | 82 | 1008.6 |
| 20260830221538 | 81 | 181 | 2.0 | 6.0 | 0.00 | 0.00 | 0.00 | 82 | 1008.6 |
| 20260830221019 | 81 | 184 | 2.0 | 6.0 | 0.00 | 0.00 | 0.00 | 82 | 1008.6 |
| 20260830220528 | 81 | 177 | 1.0 | 4.0 | 0.00 | 0.00 | 0.00 | 83 | 1008.5 |
| 20260830220057 | 81 | 176 | 3.0 | 4.0 | 0.00 | 0.00 | 0.00 | 83 | 1008.5 |
| 20260830215517 | 80 | 193 | 1.0 | 3.0 | 0.00 | 0.00 | 0.00 | 84 | 1008.5 |
| 20260830215026 | 80 | 177 | 0.0 | 2.0 | 0.00 | 0.00 | 0.00 | 84 | 1008.6 |
| 20260830214516 | 80 | 177 | 1.0 | 2.0 | 0.00 | 0.00 | 0.00 | 85 | 1008.5 |
| 20260830214021 | 80 | 185 | 0.0 | 1.0 | 0.00 | 0.00 | 0.00 | 85 | 1008.5 |
| 20260830213532 | 80 | 185 | 0.0 | 2.0 | 0.00 | 0.00 | 0.00 | 85 | 1008.4 |
| 20260830213040 | 79 | 185 | 1.0 | 3.0 | 0.00 | 0.00 | 0.00 | 85 | 1008.4 |
| 20260830212522 | 79 | 186 | 1.0 | 3.0 | 0.00 | 0.00 | 0.00 | 85 | 1008.4 |
| 20260830212030 | 79 | 171 | 0.0 | 2.0 | 0.00 | 0.00 | 0.00 | 85 | 1008.4 |
| 20260830211540 | 79 | 183 | 0.0 | 2.0 | 0.00 | 0.00 | 0.00 | 85 | 1008.3 |
| 20260830211042 | 79 | 183 | 1.0 | 3.0 | 0.00 | 0.00 | 0.00 | 85 | 1008.4 |
| 20260830210526 | 79 | 183 | 1.0 | 3.0 | 0.00 | 0.00 | 0.00 | 85 | 1008.3 |
| 20260830210032 | 79 | 178 | 0.0 | 2.0 | 0.00 | 0.00 | 0.00 | 85 | 1008.3 |
| 20260830205518 | 79 | 180 | 0.0 | 2.0 | 0.00 | 0.00 | 0.00 | 85 | 1008.3 |
| 20260830205024 | 79 | 180 | 1.0 | 2.0 | 0.00 | 0.00 | 0.00 | 85 | 1008.2 |
| 20260830204533 | 79 | 180 | 1.0 | 1.0 | 0.00 | 0.00 | 0.00 | 85 | 1008.1 |
| 20260830204041 | 78 | 180 | 1.0 | 1.0 | 0.00 | 0.00 | 0.00 | 85 | 1008.1 |
| 20260830203524 | 78 | 180 | 0.0 | 1.0 | 0.00 | 0.00 | 0.00 | 85 | 1008.0 |
| 20260830203050 | 78 | 180 | 0.0 | 1.0 | 0.00 | 0.00 | 0.00 | 85 | 1007.9 |
| 20260830202532 | 78 | 181 | 0.0 | 2.0 | 0.00 | 0.00 | 0.00 | 85 | 1007.9 |
| 20260830202041 | 79 | 176 | 1.0 | 2.0 | 0.00 | 0.00 | 0.00 | 85 | 1007.8 |
| 20260830201521 | 79 | 184 | 1.0 | 3.0 | 0.00 | 0.00 | 0.00 | 85 | 1007.8 |
| 20260830201046 | 79 | 184 | 1.0 | 3.0 | 0.00 | 0.00 | 0.00 | 85 | 1007.8 |
| 20260830200535 | 79 | 174 | 0.0 | 0.0 | 0.00 | 0.00 | 0.00 | 85 | 1007.7 |
| 20260830200017 | 79 | 174 | 0.0 | 1.0 | 0.00 | 0.00 | 0.00 | 85 | 1007.7 |
| 20260830195517 | 79 | 174 | 0.0 | 1.0 | 0.00 | 0.00 | 0.00 | 85 | 1007.7 |
| 20260830195022 | 79 | 174 | 0.0 | 1.0 | 0.00 | 0.00 | 0.00 | 85 | 1007.8 |
| 20260830194533 | 79 | 174 | 0.0 | 1.0 | 0.00 | 0.00 | 0.00 | 85 | 1007.7 |
| 20260830194041 | 79 | 174 | 0.0 | 1.0 | 0.00 | 0.00 | 0.00 | 85 | 1007.7 |
| 20260830193523 | 79 | 174 | 0.0 | 2.0 | 0.00 | 0.00 | 0.00 | 85 | 1007.7 |
| 20260830193028 | 79 | 184 | 2.0 | 3.0 | 0.00 | 0.00 | 0.00 | 85 | 1007.5 |
| 20260830192558 | 79 | 185 | 1.0 | 3.0 | 0.00 | 0.00 | 0.00 | 85 | 1007.5 |
| 20260830192019 | 79 | 185 | 1.0 | 2.0 | 0.00 | 0.00 | 0.00 | 85 | 1007.5 |
| 20260830191529 | 79 | 185 | 0.0 | 1.0 | 0.00 | 0.00 | 0.00 | 85 | 1007.6 |
| 20260830191054 | 80 | 185 | 1.0 | 1.0 | 0.00 | 0.00 | 0.00 | 85 | 1007.6 |
| 20260830190538 | 80 | 185 | 0.0 | 2.0 | 0.00 | 0.00 | 0.00 | 84 | 1007.5 |
| 20260830190046 | 80 | 185 | 1.0 | 2.0 | 0.00 | 0.00 | 0.00 | 84 | 1007.5 |
| 20260830185533 | 80 | 187 | 1.0 | 2.0 | 0.00 | 0.00 | 0.00 | 84 | 1007.5 |
| 20260830185037 | 80 | 177 | 0.0 | 2.0 | 0.00 | 0.00 | 0.00 | 85 | 1007.6 |
| 20260830184525 | 80 | 176 | 0.0 | 1.0 | 0.00 | 0.00 | 0.00 | 85 | 1007.6 |
| 20260830183519 | 80 | 182 | 0.0 | 2.0 | 0.00 | 0.00 | 0.00 | 85 | 1007.6 |
| 20260830183022 | 80 | 164 | 1.0 | 2.0 | 0.00 | 0.00 | 0.00 | 85 | 1007.5 |
| 20260830182530 | 80 | 171 | 0.0 | 2.0 | 0.00 | 0.00 | 0.00 | 85 | 1007.5 |
| 20260830182101 | 81 | 171 | 0.0 | 2.0 | 0.00 | 0.00 | 0.00 | 85 | 1007.6 |
| 20260830181518 | 81 | 180 | 2.0 | 3.0 | 0.00 | 0.00 | 0.00 | 85 | 1007.7 |
| 20260830181027 | 81 | 174 | 2.0 | 3.0 | 0.00 | 0.00 | 0.00 | 86 | 1007.6 |
| 20260830180541 | 81 | 178 | 0.0 | 3.0 | 0.00 | 0.00 | 0.00 | 86 | 1007.6 |
| 20260830180022 | 81 | 162 | 0.0 | 1.0 | 0.00 | 0.00 | 0.00 | 86 | 1007.7 |
| 20260830175552 | 81 | 162 | 0.0 | 1.0 | 0.00 | 0.00 | 0.00 | 85 | 1007.6 |
| 20260830175036 | 81 | 162 | 0.0 | 1.0 | 0.00 | 0.00 | 0.00 | 85 | 1007.6 |
| 20260830174519 | 81 | 162 | 0.0 | 1.0 | 0.00 | 0.00 | 0.00 | 85 | 1007.6 |
| 20260830174028 | 81 | 162 | 0.0 | 1.0 | 0.00 | 0.00 | 0.00 | 85 | 1007.6 |
| 20260830173600 | 81 | 162 | 0.0 | 1.0 | 0.00 | 0.00 | 0.00 | 85 | 1007.6 |
| 20260830173020 | 81 | 162 | 0.0 | 1.0 | 0.00 | 0.00 | 0.00 | 85 | 1007.7 |
| 20260830172529 | 81 | 162 | 0.0 | 1.0 | 0.00 | 0.00 | 0.00 | 85 | 1007.6 |
| 20260830172038 | 81 | 162 | 0.0 | 1.0 | 0.00 | 0.00 | 0.00 | 85 | 1007.6 |
| 20260830171520 | 81 | 162 | 0.0 | 1.0 | 0.00 | 0.00 | 0.00 | 85 | 1007.6 |
| 20260830171025 | 81 | 162 | 0.0 | 1.0 | 0.00 | 0.00 | 0.00 | 85 | 1007.6 |
| 20260830170557 | 81 | 162 | 0.0 | 0.0 | 0.00 | 0.00 | 0.00 | 85 | 1007.6 |
| 20260830170017 | 81 | 162 | 0.0 | 0.0 | 0.00 | 0.00 | 0.00 | 84 | 1007.6 |
| 20260830165528 | 81 | 162 | 0.0 | 0.0 | 0.00 | 0.00 | 0.00 | 84 | 1007.6 |
| 20260830165040 | 81 | 162 | 0.0 | 0.0 | 0.00 | 0.00 | 0.00 | 84 | 1007.7 |
| 20260830164544 | 81 | 162 | 0.0 | 1.0 | 0.00 | 0.00 | 0.00 | 83 | 1007.6 |
| 20260830164033 | 81 | 162 | 0.0 | 1.0 | 0.00 | 0.00 | 0.00 | 83 | 1007.7 |
| 20260830163540 | 81 | 162 | 0.0 | 0.0 | 0.00 | 0.00 | 0.00 | 82 | 1007.7 |
| 20260830163040 | 81 | 162 | 0.0 | 1.0 | 0.00 | 0.00 | 0.00 | 82 | 1007.7 |
| 20260830162530 | 81 | 162 | 0.0 | 1.0 | 0.00 | 0.00 | 0.00 | 82 | 1007.7 |
| 20260830162040 | 81 | 162 | 0.0 | 2.0 | 0.00 | 0.00 | 0.00 | 82 | 1007.7 |
| 20260830161521 | 81 | 162 | 0.0 | 2.0 | 0.00 | 0.00 | 0.00 | 81 | 1007.8 |
| 20260830161029 | 81 | 162 | 1.0 | 2.0 | 0.00 | 0.00 | 0.00 | 81 | 1007.7 |
| 20260830160538 | 81 | 162 | 0.0 | 1.0 | 0.00 | 0.00 | 0.00 | 81 | 1007.9 |
| 20260830160019 | 81 | 162 | 0.0 | 1.0 | 0.00 | 0.00 | 0.00 | 81 | 1007.8 |
| 20260830155527 | 81 | 162 | 0.0 | 0.0 | 0.00 | 0.00 | 0.00 | 81 | 1007.9 |
| 20260830155037 | 81 | 162 | 0.0 | 0.0 | 0.00 | 0.00 | 0.00 | 81 | 1007.9 |
| 20260830154516 | 81 | 162 | 0.0 | 0.0 | 0.00 | 0.00 | 0.00 | 81 | 1008.0 |
| 20260830154049 | 81 | 162 | 0.0 | 0.0 | 0.00 | 0.00 | 0.00 | 81 | 1007.9 |
| 20260830153540 | 81 | 162 | 0.0 | 0.0 | 0.00 | 0.00 | 0.00 | 81 | 1008.0 |
| 20260830153022 | 81 | 162 | 0.0 | 0.0 | 0.00 | 0.00 | 0.00 | 80 | 1008.0 |
| 20260830152556 | 81 | 162 | 0.0 | 0.0 | 0.00 | 0.00 | 0.00 | 80 | 1008.1 |
| 20260830152020 | 81 | 162 | 0.0 | 1.0 | 0.00 | 0.00 | 0.00 | 80 | 1008.1 |
| 20260830151525 | 82 | 162 | 0.0 | 1.0 | 0.00 | 0.00 | 0.00 | 80 | 1008.1 |
| 20260830151059 | 82 | 162 | 0.0 | 0.0 | 0.00 | 0.00 | 0.00 | 79 | 1008.1 |
| 20260830150523 | 82 | 162 | 0.0 | 0.0 | 0.00 | 0.00 | 0.00 | 79 | 1008.2 |
| 20260830150030 | 82 | 162 | 0.0 | 0.0 | 0.00 | 0.00 | 0.00 | 79 | 1008.2 |
| 20260830145538 | 82 | 162 | 0.0 | 0.0 | 0.00 | 0.00 | 0.00 | 78 | 1008.2 |
| 20260830145024 | 82 | 162 | 0.0 | 0.0 | 0.00 | 0.00 | 0.00 | 78 | 1008.3 |
| 20260830144536 | 82 | 162 | 0.0 | 0.0 | 0.00 | 0.00 | 0.00 | 77 | 1008.3 |
| 20260830144018 | 83 | 162 | 0.0 | 0.0 | 0.00 | 0.00 | 0.00 | 77 | 1008.4 |
| 20260830143529 | 83 | 162 | 0.0 | 1.0 | 0.00 | 0.00 | 0.00 | 77 | 1008.3 |
| 20260830143057 | 83 | 162 | 1.0 | 1.0 | 0.00 | 0.00 | 0.00 | 77 | 1008.3 |
| 20260830142541 | 83 | 162 | 0.0 | 0.0 | 0.00 | 0.00 | 0.00 | 76 | 1008.3 |
| 20260830142033 | 83 | 162 | 0.0 | 0.0 | 0.00 | 0.00 | 0.00 | 76 | 1008.4 |
| 20260830141520 | 83 | 162 | 0.0 | 0.0 | 0.00 | 0.00 | 0.00 | 76 | 1008.4 |
| 20260830141032 | 84 | 162 | 0.0 | 0.0 | 0.00 | 0.00 | 0.00 | 75 | 1008.4 |
| 20260830140520 | 84 | 162 | 0.0 | 0.0 | 0.00 | 0.00 | 0.00 | 75 | 1008.4 |
| 20260830140028 | 84 | 162 | 0.0 | 0.0 | 0.00 | 0.00 | 0.00 | 74 | 1008.4 |
| 20260830135530 | 84 | 162 | 0.0 | 1.0 | 0.00 | 0.00 | 0.00 | 74 | 1008.5 |
| 20260830135016 | 84 | 162 | 0.0 | 1.0 | 0.00 | 0.00 | 0.00 | 74 | 1008.5 |
| 20260830134524 | 85 | 162 | 0.0 | 2.0 | 0.00 | 0.00 | 0.00 | 74 | 1008.4 |
| 20260830134033 | 85 | 162 | 0.0 | 2.0 | 0.00 | 0.00 | 0.00 | 73 | 1008.5 |
| 20260830133542 | 85 | 162 | 0.0 | 3.0 | 0.00 | 0.00 | 0.00 | 73 | 1008.4 |
| 20260830133021 | 85 | 158 | 2.0 | 3.0 | 0.00 | 0.00 | 0.00 | 73 | 1008.3 |
| 20260830132531 | 85 | 172 | 1.0 | 3.0 | 0.00 | 0.00 | 0.00 | 73 | 1008.3 |
| 20260830132038 | 85 | 176 | 1.0 | 3.0 | 0.00 | 0.00 | 0.00 | 73 | 1008.2 |
| 20260830131537 | 85 | 162 | 1.0 | 3.0 | 0.00 | 0.00 | 0.00 | 73 | 1008.3 |
| 20260830131046 | 85 | 186 | 1.0 | 4.0 | 0.00 | 0.00 | 0.00 | 74 | 1008.4 |
| 20260830130556 | 85 | 174 | 2.0 | 4.0 | 0.00 | 0.00 | 0.00 | 74 | 1008.3 |
| 20260830130040 | 85 | 177 | 1.0 | 3.0 | 0.00 | 0.00 | 0.00 | 74 | 1008.4 |
| 20260830125520 | 85 | 184 | 0.0 | 3.0 | 0.00 | 0.00 | 0.00 | 75 | 1008.5 |
| 20260830125030 | 85 | 185 | 1.0 | 3.0 | 0.00 | 0.00 | 0.00 | 74 | 1008.5 |
| 20260830124538 | 85 | 176 | 0.0 | 4.0 | 0.00 | 0.00 | 0.00 | 74 | 1008.6 |
| 20260830124018 | 85 | 171 | 1.0 | 4.0 | 0.00 | 0.00 | 0.00 | 74 | 1008.5 |
| 20260830123524 | 85 | 174 | 1.0 | 3.0 | 0.00 | 0.00 | 0.00 | 74 | 1008.6 |
| 20260830123052 | 85 | 183 | 1.0 | 3.0 | 0.00 | 0.00 | 0.00 | 74 | 1008.5 |
| 20260830122538 | 85 | 183 | 1.0 | 3.0 | 0.00 | 0.00 | 0.00 | 74 | 1008.6 |
| 20260830122020 | 85 | 155 | 0.0 | 3.0 | 0.00 | 0.00 | 0.00 | 74 | 1008.6 |
| 20260830121529 | 85 | 172 | 2.0 | 3.0 | 0.00 | 0.00 | 0.00 | 74 | 1008.7 |
| 20260830121100 | 85 | 186 | 2.0 | 4.0 | 0.00 | 0.00 | 0.00 | 73 | 1008.6 |
| 20260830120519 | 85 | 198 | 3.0 | 5.0 | 0.00 | 0.00 | 0.00 | 73 | 1008.5 |
| 20260830120137 | 85 | 179 | 3.0 | 6.0 | 0.00 | 0.00 | 0.00 | 73 | 1008.6 |
| 20260830115601 | 86 | 191 | 2.0 | 6.0 | 0.00 | 0.00 | 0.00 | 72 | 1008.6 |
| 20260830115021 | 86 | 182 | 3.0 | 5.0 | 0.00 | 0.00 | 0.00 | 71 | 1008.6 |
| 20260830114529 | 86 | 173 | 2.0 | 6.0 | 0.00 | 0.00 | 0.00 | 71 | 1008.6 |
| 20260830114040 | 86 | 190 | 3.0 | 6.0 | 0.00 | 0.00 | 0.00 | 70 | 1008.6 |
| 20260830113522 | 87 | 200 | 3.0 | 6.0 | 0.00 | 0.00 | 0.00 | 69 | 1008.5 |
| 20260830113018 | 87 | 167 | 2.0 | 6.0 | 0.00 | 0.00 | 0.00 | 68 | 1008.4 |
| 20260830112526 | 87 | 183 | 3.0 | 5.0 | 0.00 | 0.00 | 0.00 | 67 | 1008.4 |
| 20260830112038 | 87 | 154 | 2.0 | 5.0 | 0.00 | 0.00 | 0.00 | 66 | 1008.3 |
| 20260830111539 | 87 | 200 | 2.0 | 5.0 | 0.00 | 0.00 | 0.00 | 66 | 1008.1 |
| 20260830111028 | 87 | 167 | 2.0 | 5.0 | 0.00 | 0.00 | 0.00 | 65 | 1008.1 |
| 20260830110536 | 87 | 150 | 1.0 | 5.0 | 0.00 | 0.00 | 0.00 | 65 | 1008.0 |
| 20260830110037 | 87 | 153 | 1.0 | 5.0 | 0.00 | 0.00 | 0.00 | 65 | 1007.9 |
| 20260830105537 | 88 | 163 | 2.0 | 5.0 | 0.00 | 0.00 | 0.00 | 64 | 1007.9 |
| 20260830105022 | 87 | 145 | 1.0 | 6.0 | 0.00 | 0.00 | 0.00 | 64 | 1007.8 |
| 20260830104622 | 88 | 162 | 2.0 | 6.0 | 0.00 | 0.00 | 0.00 | 64 | 1007.8 |
| 20260830104019 | 88 | 162 | 2.0 | 6.0 | 0.00 | 0.00 | 0.00 | 65 | 1007.7 |
| 20260830103530 | 88 | 158 | 3.0 | 6.0 | 0.00 | 0.00 | 0.00 | 65 | 1007.7 |
| 20260830103038 | 88 | 153 | 3.0 | 7.0 | 0.00 | 0.00 | 0.00 | 65 | 1007.6 |
| 20260830102519 | 88 | 192 | 4.0 | 7.0 | 0.00 | 0.00 | 0.00 | 66 | 1007.4 |
| 20260830102026 | 88 | 205 | 4.0 | 7.0 | 0.00 | 0.00 | 0.00 | 66 | 1007.3 |
| 20260830101532 | 88 | 160 | 3.0 | 6.0 | 0.00 | 0.00 | 0.00 | 66 | 1007.1 |
| 20260830101042 | 88 | 166 | 2.0 | 5.0 | 0.00 | 0.00 | 0.00 | 66 | 1006.9 |
| 20260830100545 | 89 | 141 | 2.0 | 6.0 | 0.00 | 0.00 | 0.00 | 65 | 1007.0 |
| 20260830100029 | 89 | 167 | 3.0 | 6.0 | 0.00 | 0.00 | 0.00 | 65 | 1007.1 |
| 20260830095537 | 89 | 163 | 2.0 | 5.0 | 0.00 | 0.00 | 0.00 | 65 | 1007.1 |
| 20260830095019 | 89 | 172 | 1.0 | 5.0 | 0.00 | 0.00 | 0.00 | 65 | 1007.0 |
| 20260830094549 | 89 | 139 | 2.0 | 6.0 | 0.00 | 0.00 | 0.00 | 64 | 1007.1 |
| 20260830094035 | 89 | 134 | 2.0 | 8.0 | 0.00 | 0.00 | 0.00 | 64 | 1007.2 |
| 20260830093518 | 89 | 134 | 4.0 | 8.0 | 0.00 | 0.00 | 0.00 | 64 | 1006.9 |
| 20260830093024 | 89 | 130 | 3.0 | 7.0 | 0.00 | 0.00 | 0.00 | 63 | 1006.8 |
| 20260830092534 | 90 | 133 | 2.0 | 5.0 | 0.00 | 0.00 | 0.00 | 63 | 1006.8 |
| 20260830092014 | 90 | 105 | 2.0 | 5.0 | 0.00 | 0.00 | 0.00 | 62 | 1006.7 |
| 20260830091523 | 91 | 159 | 2.0 | 5.0 | 0.00 | 0.00 | 0.00 | 61 | 1006.7 |
| 20260830091102 | 91 | 136 | 2.0 | 7.0 | 0.00 | 0.00 | 0.00 | 60 | 1006.6 |
| 20260830090524 | 92 | 164 | 2.0 | 8.0 | 0.00 | 0.00 | 0.00 | 59 | 1006.6 |
| 20260830090032 | 92 | 125 | 3.0 | 6.0 | 0.00 | 0.00 | 0.00 | 58 | 1006.6 |
| 20260830085019 | 92 | 141 | 3.0 | 6.0 | 0.00 | 0.00 | 0.00 | 59 | 1006.4 |
| 20260830084528 | 93 | 120 | 2.0 | 5.0 | 0.00 | 0.00 | 0.00 | 58 | 1006.4 |
| 20260830084059 | 93 | 141 | 3.0 | 6.0 | 0.00 | 0.00 | 0.00 | 58 | 1006.4 |
| 20260830083542 | 93 | 129 | 3.0 | 6.0 | 0.00 | 0.00 | 0.00 | 58 | 1006.4 |
| 20260830083024 | 93 | 160 | 3.0 | 9.0 | 0.00 | 0.00 | 0.00 | 57 | 1006.3 |
| 20260830082533 | 93 | 70 | 3.0 | 9.0 | 0.00 | 0.00 | 0.00 | 57 | 1006.3 |
| 20260830082015 | 93 | 143 | 1.0 | 6.0 | 0.00 | 0.00 | 0.00 | 57 | 1006.3 |
| 20260830081524 | 93 | 147 | 2.0 | 7.0 | 0.00 | 0.00 | 0.00 | 58 | 1006.3 |
| 20260830081014 | 93 | 129 | 4.0 | 10.0 | 0.00 | 0.00 | 0.00 | 58 | 1006.4 |
| 20260830080543 | 93 | 134 | 4.0 | 10.0 | 0.00 | 0.00 | 0.00 | 58 | 1006.3 |
| 20260830080023 | 92 | 84 | 4.0 | 7.0 | 0.00 | 0.00 | 0.00 | 59 | 1006.3 |
| 20260830075044 | 91 | 60 | 4.0 | 10.0 | 0.00 | 0.00 | 0.00 | 66 | 1006.2 |
| 20260830074526 | 92 | 68 | 6.0 | 10.0 | 0.00 | 0.00 | 0.00 | 66 | 1006.2 |
| 20260830074034 | 92 | 59 | 6.0 | 9.0 | 0.00 | 0.00 | 0.00 | 63 | 1006.2 |
| 20260830073517 | 92 | 75 | 5.0 | 11.0 | 0.00 | 0.00 | 0.00 | 64 | 1006.1 |
| 20260830073045 | 91 | 70 | 6.0 | 11.0 | 0.00 | 0.00 | 0.00 | 65 | 1006.2 |
| 20260830072533 | 91 | 46 | 5.0 | 9.0 | 0.00 | 0.00 | 0.00 | 66 | 1006.2 |
| 20260830072041 | 92 | 62 | 4.0 | 9.0 | 0.00 | 0.00 | 0.00 | 66 | 1006.1 |
| 20260830071522 | 91 | 63 | 6.0 | 10.0 | 0.00 | 0.00 | 0.00 | 65 | 1006.1 |
| 20260830071027 | 92 | 72 | 5.0 | 11.0 | 0.00 | 0.00 | 0.00 | 65 | 1006.2 |
| 20260830070535 | 92 | 20 | 6.0 | 11.0 | 0.00 | 0.00 | 0.00 | 65 | 1006.2 |
| 20260830070015 | 92 | 104 | 4.0 | 12.0 | 0.00 | 0.00 | 0.00 | 64 | 1006.2 |
| 20260830065544 | 92 | 78 | 5.0 | 12.0 | 0.00 | 0.00 | 0.00 | 64 | 1006.2 |
| 20260830065031 | 92 | 22 | 6.0 | 10.0 | 0.00 | 0.00 | 0.00 | 64 | 1006.3 |
| 20260830064541 | 92 | 41 | 5.0 | 10.0 | 0.00 | 0.00 | 0.00 | 65 | 1006.3 |
| 20260830064044 | 92 | 351 | 7.0 | 10.0 | 0.00 | 0.00 | 0.00 | 64 | 1006.3 |
| 20260830063551 | 93 | 47 | 5.0 | 9.0 | 0.00 | 0.00 | 0.00 | 63 | 1006.3 |
| 20260830063031 | 92 | 55 | 6.0 | 10.0 | 0.00 | 0.00 | 0.00 | 65 | 1006.4 |
| 20260830062540 | 92 | 56 | 6.0 | 12.0 | 0.00 | 0.00 | 0.00 | 65 | 1006.5 |
| 20260830062021 | 92 | 39 | 5.0 | 12.0 | 0.00 | 0.00 | 0.00 | 65 | 1006.5 |
| 20260830061529 | 92 | 39 | 5.0 | 12.0 | 0.00 | 0.00 | 0.00 | 66 | 1006.6 |
| 20260830061037 | 93 | 30 | 6.0 | 12.0 | 0.00 | 0.00 | 0.00 | 65 | 1006.7 |
| 20260830060520 | 93 | 332 | 5.0 | 10.0 | 0.00 | 0.00 | 0.00 | 63 | 1006.7 |
| 20260830060028 | 93 | 61 | 4.0 | 10.0 | 0.00 | 0.00 | 0.00 | 64 | 1006.8 |
| 20260830055540 | 92 | 96 | 4.0 | 11.0 | 0.00 | 0.00 | 0.00 | 65 | 1006.8 |
| 20260830055015 | 92 | 34 | 4.0 | 12.0 | 0.00 | 0.00 | 0.00 | 65 | 1006.8 |
| 20260830054524 | 91 | 27 | 7.0 | 12.0 | 0.00 | 0.00 | 0.00 | 66 | 1006.9 |
| 20260830054032 | 92 | 8 | 8.0 | 12.0 | 0.00 | 0.00 | 0.00 | 66 | 1006.9 |
| 20260830053517 | 93 | 46 | 6.0 | 10.0 | 0.00 | 0.00 | 0.00 | 63 | 1006.8 |
| 20260830053022 | 93 | 22 | 6.0 | 10.0 | 0.00 | 0.00 | 0.00 | 62 | 1006.8 |
| 20260830052530 | 92 | 69 | 7.0 | 10.0 | 0.00 | 0.00 | 0.00 | 62 | 1006.9 |
| 20260830052037 | 92 | 49 | 6.0 | 10.0 | 0.00 | 0.00 | 0.00 | 64 | 1006.9 |
| 20260830051515 | 92 | 58 | 7.0 | 10.0 | 0.00 | 0.00 | 0.00 | 64 | 1006.9 |
| 20260830051026 | 92 | 23 | 6.0 | 11.0 | 0.00 | 0.00 | 0.00 | 64 | 1006.9 |
| 20260830050535 | 92 | 60 | 6.0 | 11.0 | 0.00 | 0.00 | 0.00 | 64 | 1006.8 |
| 20260830050017 | 92 | 44 | 8.0 | 11.0 | 0.00 | 0.00 | 0.00 | 63 | 1007.0 |
| 20260830045525 | 92 | 62 | 7.0 | 11.0 | 0.00 | 0.00 | 0.00 | 62 | 1007.0 |
| 20260830045031 | 92 | 58 | 6.0 | 10.0 | 0.00 | 0.00 | 0.00 | 62 | 1007.1 |
| 20260830044541 | 93 | 50 | 7.0 | 10.0 | 0.00 | 0.00 | 0.00 | 62 | 1007.1 |
| 20260830044020 | 93 | 321 | 5.0 | 10.0 | 0.00 | 0.00 | 0.00 | 62 | 1007.1 |
| 20260830043525 | 92 | 70 | 7.0 | 12.0 | 0.00 | 0.00 | 0.00 | 62 | 1007.2 |
| 20260830043031 | 92 | 63 | 6.0 | 12.0 | 0.00 | 0.00 | 0.00 | 62 | 1007.3 |
| 20260830042540 | 93 | 23 | 5.0 | 10.0 | 0.00 | 0.00 | 0.00 | 63 | 1007.2 |
| 20260830042020 | 93 | 66 | 4.0 | 12.0 | 0.00 | 0.00 | 0.00 | 62 | 1007.2 |
| 20260830041539 | 93 | 29 | 4.0 | 9.0 | 0.00 | 0.00 | 0.00 | 62 | 1007.1 |
| 20260830041020 | 93 | 96 | 5.0 | 9.0 | 0.00 | 0.00 | 0.00 | 63 | 1007.3 |
| 20260830040529 | 93 | 58 | 4.0 | 9.0 | 0.00 | 0.00 | 0.00 | 62 | 1007.4 |
| 20260830040033 | 93 | 73 | 6.0 | 13.0 | 0.00 | 0.00 | 0.00 | 61 | 1007.4 |
| 20260830035536 | 92 | 44 | 5.0 | 12.0 | 0.00 | 0.00 | 0.00 | 63 | 1007.4 |
| 20260830035025 | 92 | 60 | 7.0 | 13.0 | 0.00 | 0.00 | 0.00 | 62 | 1007.5 |
| 20260830034534 | 92 | 345 | 5.0 | 13.0 | 0.00 | 0.00 | 0.00 | 63 | 1007.6 |
| 20260830034015 | 92 | 1 | 5.0 | 11.0 | 0.00 | 0.00 | 0.00 | 63 | 1007.5 |
| 20260830033544 | 91 | 13 | 5.0 | 9.0 | 0.00 | 0.00 | 0.00 | 64 | 1007.6 |
| 20260830033023 | 91 | 60 | 5.0 | 12.0 | 0.00 | 0.00 | 0.00 | 64 | 1007.6 |
| 20260830032549 | 91 | 18 | 6.0 | 12.0 | 0.00 | 0.00 | 0.00 | 64 | 1007.5 |
| 20260830032037 | 91 | 31 | 6.0 | 11.0 | 0.00 | 0.00 | 0.00 | 66 | 1007.6 |
| 20260830031518 | 90 | 54 | 5.0 | 10.0 | 0.00 | 0.00 | 0.00 | 66 | 1007.6 |
| 20260830031026 | 90 | 51 | 6.0 | 10.0 | 0.00 | 0.00 | 0.00 | 68 | 1007.7 |
| 20260830030536 | 89 | 51 | 6.0 | 10.0 | 0.00 | 0.00 | 0.00 | 68 | 1007.8 |
| 20260830030016 | 89 | 25 | 6.0 | 11.0 | 0.00 | 0.00 | 0.00 | 68 | 1007.8 |
| 20260830025525 | 89 | 58 | 7.0 | 11.0 | 0.00 | 0.00 | 0.00 | 66 | 1007.9 |
| 20260830025047 | 90 | 70 | 5.0 | 8.0 | 0.00 | 0.00 | 0.00 | 68 | 1008.0 |
| 20260830024550 | 89 | 67 | 4.0 | 9.0 | 0.00 | 0.00 | 0.00 | 69 | 1008.0 |
| 20260830024058 | 89 | 42 | 5.0 | 9.0 | 0.00 | 0.00 | 0.00 | 68 | 1008.1 |